Muncie, IN

6:19 AM EDT on March 24, 2017 (GMT -0400)
Delaware County-Johnson

Weather History for KMIE - July, 2014

Change the Weather History Date:

Sunday, July 13, 2014

  Actual Average Record
Temperature  
Mean Temperature 77 °F 75 °F  
Max Temperature 84 °F 85 °F 99 °F (1966)
Min Temperature 70 °F 65 °F 50 °F (1976)
Degree Days  
Heating Degree Days 0 0  
Month to date heating degree days 1 0  
Since 1 June heating degree days 9 24  
Since 1 July heating degree days 1 0  
Cooling Degree Days 12 10  
Month to date cooling degree days 85 130  
Year to date cooling degree days 445 429  
Since 1 June cooling degree days 330 346  
Growing Degree Days 27 (Base 50)    
Moisture  
Dew Point 69 °F    
Average Humidity 73    
Maximum Humidity 84    
Minimum Humidity 62    
Precipitation  
Precipitation T in 0.15 in 1.64 in (1992)
Month to date precipitation 1.50 1.87  
Year to date precipitation 21.73 22.10  
Sea Level Pressure  
Sea Level Pressure 29.92 in    
Wind  
Wind Speed 9 mph (West)    
Max Wind Speed 21 mph    
Max Gust Speed 25 mph    
Visibility 10 miles    
Events Rain    
T = Trace of Precipitation, MM = Missing Value Source: NWS Daily Summary

Daily Weather History Graph

Daily Weather History Graph

Search for Another Location

Airport or City:

Trip Planner

Search our weather history database for the weather conditions in past years. The results will help you decide how hot, cold, wet, or windy it might be!

Date:

Astronomy

Jul. 13, 2014 Rise Set
Actual Time 6:23 AM EDT 9:11 PM EDT
Civil Twilight 5:51 AM EDT 9:43 PM EDT
Nautical Twilight 5:10 AM EDT 10:23 PM EDT
Astronomical Twilight 4:24 AM EDT 11:09 PM EDT
Moon 9:58 PM EDT (7/13) 7:52 AM EDT (7/13)
Length of Visible Light 15h 52m
Length of Day
14h 48m
Full, 98% of the Moon is Illuminated
Jul 13
Full
Jul 18
Last Quarter
Jul 26
New
Aug 3
First Quarter
Aug 10
Full

Hourly Weather History & Observations

Time (EDT) Temp. Heat Index Dew Point Humidity Pressure Visibility Wind Dir Wind Speed Gust Speed Precip Events Conditions
12:53 AM 75.9 °F - 68.0 °F 76% 29.96 in 10.0 mi SW 9.2 mph - N/A   Clear
1:53 AM 75.9 °F - 69.1 °F 79% 29.96 in 10.0 mi SW 9.2 mph - N/A   Partly Cloudy
2:53 AM 75.9 °F - 69.1 °F 79% 29.91 in 10.0 mi SSW 9.2 mph - N/A   Scattered Clouds
3:53 AM 77.0 °F - 69.1 °F 76% 29.91 in 10.0 mi SW 11.5 mph 18.4 mph N/A   Scattered Clouds
4:53 AM 75.9 °F - 69.1 °F 79% 29.91 in 10.0 mi SW 8.1 mph - N/A   Scattered Clouds
5:53 AM 75.9 °F - 69.1 °F 79% 29.91 in 10.0 mi SW 10.4 mph - N/A   Clear
6:53 AM 75.0 °F - 70.0 °F 84% 29.90 in 10.0 mi SW 9.2 mph - 0.00 in   Scattered Clouds
7:17 AM 75.0 °F - 70.0 °F 84% 29.94 in 10.0 mi SW 8.1 mph - N/A   Mostly Cloudy
7:53 AM 75.0 °F - 70.0 °F 84% 29.92 in 10.0 mi West 6.9 mph - N/A   Overcast
8:05 AM 75.0 °F - 69.1 °F 82% 29.95 in 10.0 mi West 6.9 mph - N/A   Overcast
8:53 AM 73.9 °F - 69.1 °F 85% 29.93 in 10.0 mi WNW 11.5 mph 19.6 mph 0.00 in Rain Light Rain
9:09 AM 75.0 °F - 69.1 °F 82% 29.96 in 10.0 mi West 8.1 mph - 0.00 in   Overcast
9:53 AM 75.9 °F - 69.1 °F 79% 29.93 in 10.0 mi West 12.7 mph - 0.00 in   Partly Cloudy
10:53 AM 77.0 °F - 68.0 °F 74% 29.93 in 10.0 mi West 12.7 mph 23.0 mph N/A   Partly Cloudy
11:53 AM 80.1 °F 82.7 °F 68.0 °F 67% 29.93 in 10.0 mi West 17.3 mph 21.9 mph N/A   Scattered Clouds
12:28 PM 78.1 °F - 68.0 °F 71% 29.96 in 10.0 mi West 11.5 mph - N/A   Overcast
12:53 PM 80.1 °F 82.9 °F 69.1 °F 69% 29.93 in 10.0 mi West 10.4 mph - N/A   Overcast
1:04 PM 82.0 °F 85.9 °F 70.0 °F 67% 29.96 in 10.0 mi West 12.7 mph 19.6 mph N/A   Overcast
1:14 PM 79.0 °F - 68.0 °F 69% 29.96 in 10.0 mi West 11.5 mph - N/A   Overcast
1:41 PM 80.1 °F 82.9 °F 69.1 °F 69% 29.97 in 10.0 mi WSW 12.7 mph - N/A   Overcast
1:53 PM 81.0 °F 84.4 °F 70.0 °F 69% 29.93 in 10.0 mi WSW 12.7 mph - N/A   Overcast
2:53 PM 80.1 °F 82.9 °F 69.1 °F 69% 29.92 in 10.0 mi West 10.4 mph - N/A   Overcast
3:53 PM 82.9 °F 87.0 °F 70.0 °F 65% 29.89 in 10.0 mi West 11.5 mph - N/A   Mostly Cloudy
4:53 PM 82.0 °F 85.9 °F 70.0 °F 67% 29.90 in 10.0 mi WNW 13.8 mph 18.4 mph N/A   Clear
5:53 PM 82.9 °F 86.5 °F 69.1 °F 63% 29.89 in 10.0 mi WNW 9.2 mph - N/A   Partly Cloudy
6:53 PM 82.9 °F 85.8 °F 68.0 °F 60% 29.88 in 10.0 mi WNW 11.5 mph - N/A   Clear
7:53 PM 81.0 °F 83.3 °F 66.9 °F 62% 29.89 in 10.0 mi NW 8.1 mph - N/A   Clear
8:53 PM 78.1 °F - 68.0 °F 71% 29.90 in 10.0 mi NW 4.6 mph - N/A   Clear
9:53 PM 75.0 °F - 66.9 °F 76% 29.91 in 10.0 mi Calm Calm - N/A   Clear
10:53 PM 72.0 °F - 66.9 °F 84% 29.92 in 10.0 mi Calm Calm - N/A   Clear
11:53 PM 72.0 °F - 66.9 °F 84% 29.90 in 10.0 mi SSW 3.5 mph - N/A   Clear